Tracking 17149 objects as of 22-May-2015
HD Live streaming from Space Station

SL-4 DEB


SL-4 DEB is no longer on orbit
SL-4 DEB is classified as:


NORAD ID: 8855
Int'l Code: 1976-045C
Perigee: N/A
Apogee: N/A
Inclination: N/A
Period: N/A
Semi major axis: N/A
RCS: N/A
Launch date: May 20, 1976
Source: Commonwealth of Independent States (former USSR) (CIS)
Decay date: 1976-05-22

Note: This is SATELLITE DEBRIS
Your satellite tracking list
Your tracking list is empty





NASA's NSSDC Master Catalog

Two Line Element Set (TLE):
1 08855U 76045  C 76141.72157429  .04293350 +00000-0 +00000-0 0  9990
2 08855 065.0015 017.5512 0064090 051.8002 308.8868 16.09770684000077

Source of the keplerian elements: AFSPC

N2YO: 395